GW7015 Weather Reports


time (UTC)temp
F
wind
direction
speed
knots
gust
knots
rain 1hr
in
rain 24hr
in
rain mn
in
humidity
%
barometer
mb
20260505124516 61 212 5.2 12.2 0.00 0.00 0.00 72 1012.3
20260505123020 60 219 3.5 13.0 0.00 0.00 0.00 74 1012.1
20260505121522 60 264 4.3 9.6 0.00 0.00 0.00 74 1012.3
20260505120036 59 301 2.6 11.3 0.00 0.00 0.00 77 1012.4
20260505114512 58 209 6.1 11.3 0.00 0.00 0.00 77 1012.5
20260505113015 57 277 4.3 13.0 0.00 0.00 0.00 78 1012.5
20260505111529 56 135 1.7 7.0 0.00 0.00 0.00 80 1012.5
20260505101519 53 174 1.7 8.7 0.00 0.00 0.00 84 1012.5
20260505100029 53 176 2.6 7.8 0.00 0.00 0.00 84 1012.4
20260505094524 53 221 2.6 7.8 0.00 0.00 0.00 84 1012.2
20260505093026 53 238 2.6 7.0 0.00 0.00 0.00 84 1012.2
20260505091519 53 225 1.7 7.8 0.00 0.00 0.00 84 1012.2
20260505090021 53 211 3.5 8.7 0.00 0.00 0.00 85 1012.2
20260505084533 53 212 1.7 7.8 0.00 0.00 0.00 85 1012.1
20260505083043 53 237 2.6 8.7 0.00 0.00 0.00 86 1012.3
20260505081527 53 188 1.7 10.4 0.00 0.00 0.00 86 1012.3
20260505080024 53 221 3.5 11.3 0.00 0.00 0.00 86 1012.4
20260505074517 53 237 1.7 8.7 0.00 0.00 0.00 85 1012.4
20260505073020 53 221 2.6 8.7 0.00 0.00 0.00 85 1012.4
20260505071510 53 148 1.7 7.8 0.00 0.00 0.00 85 1012.4
20260505070015 53 244 4.3 10.4 0.00 0.00 0.00 86 1012.4
20260505064519 52 211 2.6 7.8 0.00 0.00 0.00 86 1012.3
20260505063024 52 229 2.6 11.3 0.00 0.00 0.00 86 1012.3
20260505061507 53 224 2.6 7.8 0.00 0.00 0.00 85 1012.2
20260505060012 52 84 1.7 8.7 0.00 0.00 0.00 85 1012.3
20260505054518 53 249 2.6 9.6 0.00 0.00 0.00 85 1012.3
20260505053019 53 245 3.5 9.6 0.00 0.00 0.00 84 1012.3
20260505051522 53 227 4.3 8.7 0.00 0.00 0.00 83 1012.3
20260505041520 53 186 2.6 8.7 0.00 0.00 0.00 80 1012.4
20260505040024 53 247 2.6 9.6 0.00 0.00 0.00 79 1012.6
20260505034511 53 221 4.3 8.7 0.00 0.00 0.00 79 1012.7
20260505033015 53 226 4.3 11.3 0.00 0.00 0.00 78 1012.6
20260505031518 53 238 3.5 10.4 0.00 0.00 0.00 77 1012.6
20260505030024 53 167 5.2 12.2 0.00 0.00 0.00 77 1012.7
20260505024526 54 238 6.1 13.9 0.00 0.00 0.00 76 1012.7
20260505023013 54 226 7.0 13.9 0.00 0.00 0.00 76 1012.7
20260505021515 54 252 7.0 14.8 0.00 0.00 0.00 75 1012.5
20260505020033 54 301 4.3 15.6 0.00 0.00 0.00 75 1012.4
20260505014535 54 212 4.3 13.9 0.00 0.00 0.00 74 1012.3
20260505011514 54 213 4.3 13.9 0.00 0.00 0.00 70 1011.9
20260505010017 55 242 4.3 16.5 0.00 0.00 0.00 68 1011.7
20260505004507 55 212 7.8 15.6 0.00 0.00 0.00 66 1011.5
20260505003007 55 201 5.2 12.2 0.00 0.00 0.00 62 1011.2
20260505001513 55 232 4.3 12.2 0.00 0.00 0.00 61 1011.1
20260505000016 55 231 7.0 20.0 0.00 0.00 0.00 60 1011.1
20260504234519 55 234 4.3 18.2 0.00 0.00 0.00 61 1010.8
20260504233006 56 194 7.8 17.4 0.00 0.00 0.00 61 1010.6
20260504231508 56 226 6.1 13.0 0.00 0.00 0.00 60 1010.5
20260504230015 56 221 7.0 15.6 0.00 0.00 0.00 60 1010.4
20260504224519 57 221 6.1 17.4 0.00 0.00 0.00 58 1010.3
20260504223024 58 207 6.1 17.4 0.00 0.00 0.00 55 1010.2
20260504221504 59 211 7.0 13.9 0.00 0.00 0.00 54 1010.3
20260504220010 60 197 6.1 15.6 0.00 0.00 0.00 53 1010.4
20260504214518 60 183 6.1 17.4 0.00 0.00 0.00 53 1010.4
20260504213026 61 248 4.3 16.5 0.00 0.00 0.00 52 1010.5
20260504211533 61 238 6.1 20.0 0.00 0.00 0.00 49 1010.6
20260504210010 63 324 5.2 16.5 0.00 0.00 0.00 46 1010.3
20260504204515 64 173 3.5 13.9 0.00 0.00 0.00 44 1010.2
20260504203019 64 250 3.5 14.8 0.00 0.00 0.00 41 1010.0
20260504201523 64 252 8.7 26.9 0.00 0.00 0.00 37 1010.0
20260504200026 64 252 7.8 21.7 0.00 0.00 0.00 36 1010.0
20260504194512 64 262 10.4 24.3 0.00 0.00 0.00 33 1009.8
20260504193014 64 333 8.7 21.7 0.00 0.00 0.00 36 1009.8
20260504191519 64 237 8.7 20.9 0.00 0.00 0.00 37 1010.0
20260504190022 65 199 8.7 19.1 0.00 0.00 0.00 36 1010.0
20260504184536 65 224 7.0 20.9 0.00 0.00 0.00 37 1009.9
20260504183012 65 269 6.1 21.7 0.00 0.00 0.00 38 1009.8
20260504181518 66 214 8.7 19.1 0.00 0.00 0.00 32 1009.6
20260504180024 66 160 5.2 20.9 0.00 0.00 0.00 33 1009.6
20260504174523 66 224 4.3 13.9 0.00 0.00 0.00 37 1009.7
20260504173026 66 176 7.0 18.2 0.00 0.00 0.00 38 1010.1
20260504171514 66 245 3.5 13.9 0.00 0.00 0.00 39 1010.2